Wind_Speed
42 44 45 46 48 50 52 54 57 59 60 61 61 61 60 59 59 58 59 59 59 59 59 58 58 57 56 54 53 51 51 51 51 50 50 51 47 45 46 46 45 44 44 45 46 47 48 51 54 57 58 58 58 59 61 60 62 64 62 58 53 50 50 51 54 55 56 58 61 61 61 58 57 59 59 57 50 45 44 41 39 37 36 36 36 37 34 32
44 45 47 49 51 52 53 54 56 58 61 63 65 66 66 66 65 64 63 64 64 64 64 64 63 62 61 59 57 56 56 56 55 55 54 52 49 48 49 49 47 45 45 47 46 46 46 48 50 52 53 54 56 59 60 59 60 59 58 56 53 53 55 57 59 59 59 60 63 64 63 61 59 62 62 58 53 49 45 43 41 40 38 38 38 39 37 33
46 47 49 51 53 55 56 58 58 60 61 63 65 67 70 71 71 70 69 69 69 69 69 69 68 67 66 64 62 60 60 60 60 60 57 55 54 53 53 52 50 47 48 49 48 47 48 48 49 49 50 51 53 57 59 58 58 57 56 52 50 54 59 61 61 61 62 65 66 65 65 63 62 64 64 60 56 51 47 46 44 42 41 41 40 40 40 34
51 52 53 54 55 57 59 61 62 63 64 65 66 67 69 72 73 75 75 75 75 74 74 74 73 72 71 68 66 64 63 63 63 63 61 59 59 58 57 56 54 51 50 51 50 50 50 50 50 49 49 49 50 54 55 55 56 57 54 49 50 56 59 61 63 65 67 68 67 66 66 65 64 67 66 62 58 53 50 49 48 45 43 43 42 42 43 37
55 57 58 59 60 60 61 63 65 66 67 68 69 70 71 72 73 75 77 78 79 79 79 79 78 77 75 73 71 69 67 66 65 66 64 63 63 63 62 60 58 56 54 54 53 53 52 51 51 51 50 49 50 51 51 52 55 55 52 52 54 55 57 61 65 67 69 69 68 67 67 67 68 68 66 64 59 55 53 52 49 47 45 44 44 44 44 42
59 61 63 64 65 65 65 66 67 69 70 72 73 74 74 75 76 76 77 79 80 81 83 83 82 81 79 77 75 73 72 70 69 70 68 66 66 66 65 64 63 61 59 58 58 57 55 54 53 52 51 51 51 50 49 52 54 51 50 53 55 54 57 60 63 66 69 69 68 68 70 71 71 67 66 64 60 58 56 54 51 49 48 47 47 46 45 48
64 65 66 67 68 69 70 70 71 72 73 75 76 77 78 79 79 80 80 80 81 82 83 84 84 84 83 81 79 77 75 74 75 75 73 70 68 68 68 67 66 65 64 63 62 60 58 56 54 54 53 53 53 51 51 53 52 48 48 51 53 55 58 60 62 65 67 68 69 71 72 71 70 68 67 65 62 60 58 56 53 51 50 49 49 50 51 54
67 68 69 70 71 73 74 75 76 76 77 78 79 80 81 82 83 83 83 84 84 84 84 84 84 85 85 84 83 80 77 80 83 80 77 74 72 72 71 70 69 67 67 66 65 63 61 58 56 56 55 55 55 53 54 54 49 45 46 49 52 55 58 61 63 64 64 66 68 70 70 70 71 71 68 65 64 62 59 57 55 53 52 51 52 54 57 57
69 71 73 74 75 77 78 79 80 81 82 82 83 84 85 85 86 86 86 87 87 87 87 86 85 85 85 85 85 81 81 88 88 82 81 79 76 75 74 72 71 70 70 69 68 65 62 60 59 59 58 58 57 55 56 53 47 43 45 49 51 53 58 61 63 63 63 64 65 66 66 69 72 72 69 66 66 63 60 58 56 54 53 53 55 59 61 59
72 74 76 78 80 81 82 84 85 86 87 87 88 88 88 89 89 89 89 89 89 90 90 89 88 88 86 85 84 81 86 95 91 85 84 83 80 78 76 74 73 72 72 71 70 67 65 63 63 62 60 59 58 56 56 52 47 45 46 49 50 52 55 58 61 63 63 63 63 62 63 67 71 70 67 67 68 65 63 61 57 55 54 56 61 65 63 60
77 79 81 82 84 86 87 88 90 91 92 92 93 92 92 93 93 93 93 92 92 92 92 92 92 90 89 87 84 83 92 96 90 88 87 85 83 81 79 77 75 74 73 72 71 69 68 67 65 62 59 58 58 58 57 53 50 48 47 48 49 50 53 54 56 59 61 61 62 62 62 65 66 63 62 67 69 66 65 63 60 58 57 61 65 65 61 58
81 82 83 84 85 86 88 90 92 94 95 96 97 97 97 96 96 96 96 95 95 95 95 95 94 93 92 89 87 90 95 92 89 88 87 86 85 83 81 79 78 77 75 74 72 71 70 69 66 62 59 59 59 59 57 54 52 51 48 47 48 49 50 51 53 56 57 58 61 64 62 61 61 58 60 66 67 65 65 64 63 62 63 66 65 62 59 58
81 80 79 79 80 82 85 87 90 93 95 98 99 100 100 100 99 98 98 98 98 98 98 97 96 96 94 92 93 95 94 91 91 89 87 87 86 84 83 82 81 80 78 76 75 73 71 69 65 61 60 59 59 59 57 56 54 53 50 48 49 48 45 48 51 54 54 55 60 63 59 58 59 59 61 65 64 63 63 64 65 65 65 66 65 63 61 59
76 74 73 74 76 79 81 84 87 90 93 96 98 101 102 102 101 100 100 100 101 101 101 100 99 98 96 96 99 97 94 95 96 93 89 87 85 85 84 83 83 81 80 78 77 75 72 69 65 62 60 58 58 58 57 57 55 54 53 48 48 46 43 46 50 51 52 54 59 59 54 55 60 62 62 63 62 61 62 63 65 65 65 66 66 64 63 61
70 70 71 73 75 77 80 82 84 86 88 91 94 98 100 101 101 101 101 101 102 102 103 102 101 101 99 101 102 100 98 99 99 97 91 86 85 85 84 84 84 82 80 79 77 75 73 69 65 62 60 58 59 57 55 55 54 54 53 48 47 46 44 47 49 48 50 54 58 55 49 51 59 63 63 62 62 62 61 62 63 62 62 64 65 63 63 61
68 69 71 72 73 75 77 79 81 83 84 86 89 92 93 94 96 98 100 101 102 102 103 104 104 102 102 104 105 103 102 102 101 99 92 88 88 87 86 84 82 82 81 80 78 76 73 69 65 62 60 59 58 56 54 53 51 51 51 48 48 47 46 49 49 47 50 54 56 52 47 49 54 60 62 63 63 63 62 62 62 60 60 62 62 61 61 59
69 70 70 70 71 72 74 76 78 79 80 82 83 84 84 84 85 89 93 96 99 101 103 104 105 103 103 106 107 107 106 105 104 101 95 91 91 92 89 84 83 83 82 81 79 76 73 69 66 63 61 59 57 55 52 48 45 46 46 47 49 48 48 50 50 49 50 53 54 52 49 48 51 56 59 62 64 65 65 64 61 58 58 59 59 59 58 57
69 68 67 67 68 69 71 73 74 74 75 75 76 76 76 76 75 78 83 87 91 95 99 102 103 103 105 107 110 111 110 108 107 103 98 94 94 95 92 88 87 86 84 83 79 76 74 70 67 65 61 58 56 53 48 43 44 45 45 47 48 49 50 50 51 50 50 52 53 52 50 49 50 54 57 59 61 65 68 66 60 56 56 56 57 56 55 55
67 65 64 64 65 66 68 69 69 70 70 69 68 66 67 68 68 70 74 77 81 86 91 96 99 102 105 109 112 113 112 110 109 106 101 97 97 97 95 93 91 89 86 83 80 77 73 70 67 63 59 56 53 52 49 47 49 49 47 47 48 49 49 50 52 52 51 52 52 51 51 51 51 54 57 57 59 65 68 64 59 55 55 55 55 55 55 55
65 63 62 61 62 63 64 64 64 65 65 64 61 59 58 58 60 63 67 71 75 79 82 87 92 97 103 109 112 112 112 112 111 108 103 100 99 99 98 96 95 92 88 85 81 79 75 71 66 60 58 57 55 55 54 53 54 52 50 48 48 48 48 50 53 54 54 52 52 52 52 52 53 55 57 57 58 61 61 59 57 56 55 55 55 55 54 55
64 61 59 58 58 60 60 58 58 59 60 58 55 54 52 51 53 55 59 64 70 74 78 81 85 90 97 106 110 110 110 112 112 110 106 103 102 102 100 98 97 93 90 88 85 82 77 70 64 62 62 61 60 58 57 57 57 55 52 49 48 47 47 50 53 55 55 53 53 54 53 52 53 56 57 56 56 55 53 53 55 56 56 56 55 54 54 54
63 60 57 55 55 57 55 52 52 52 52 50 48 49 46 45 47 49 53 58 64 69 73 76 78 82 90 99 104 105 107 110 112 112 108 106 105 104 102 100 97 94 93 92 88 83 76 68 66 67 67 66 64 61 59 59 59 57 53 50 48 47 47 49 53 55 55 54 54 55 54 51 52 55 55 54 52 50 49 50 52 54 56 56 55 54 53 53
63 59 56 53 52 54 51 48 46 47 46 43 42 43 41 40 41 43 47 53 60 64 67 70 72 76 85 94 97 96 101 108 111 112 109 107 106 106 104 101 98 96 95 93 88 83 77 72 72 72 71 69 66 63 61 60 60 57 54 51 49 47 47 48 52 55 55 55 56 55 54 52 51 52 51 50 49 48 48 48 47 48 51 55 55 54 53 52
62 59 55 51 50 50 48 45 43 42 41 37 36 37 36 37 37 39 42 48 57 59 59 63 66 73 82 89 90 88 95 106 110 111 109 108 108 108 106 103 100 98 95 92 89 85 80 77 78 77 74 72 68 65 63 61 60 58 55 52 50 49 48 49 52 55 56 57 57 57 55 53 50 48 47 47 47 47 48 46 44 44 47 52 54 54 53 53
63 58 54 50 49 48 46 43 40 38 37 34 32 32 32 33 33 36 38 44 52 52 51 58 64 70 78 82 84 85 91 102 107 108 108 108 109 109 108 105 101 98 96 93 90 86 82 81 81 80 77 74 70 66 63 62 61 59 56 53 51 51 49 50 52 55 57 57 57 58 55 50 47 45 45 45 46 47 46 44 42 42 44 47 52 55 54 55
63 59 54 50 48 47 45 41 37 35 34 31 29 29 29 29 29 33 36 40 46 45 45 54 61 66 73 77 80 83 88 97 102 104 106 108 110 110 109 106 101 98 97 95 92 87 83 82 82 81 78 76 72 67 64 63 63 60 57 55 55 54 52 52 53 54 55 55 56 57 52 48 46 45 43 43 45 45 44 43 42 42 42 45 50 55 55 56
65 59 54 50 48 46 43 40 36 33 32 30 27 27 27 26 26 29 33 36 39 39 43 50 57 62 66 71 75 79 86 94 97 97 102 107 109 110 109 106 102 100 99 97 92 87 83 82 82 81 79 77 72 68 65 64 63 60 58 59 58 57 56 55 55 54 52 52 54 54 50 46 45 44 42 41 43 43 42 41 41 41 43 46 50 54 55 56
66 60 54 51 49 46 42 38 34 32 31 30 28 26 25 24 24 26 30 32 33 36 40 44 50 55 58 64 71 77 84 90 92 92 98 104 107 109 109 106 103 101 100 96 90 87 85 83 82 81 79 75 70 67 66 65 63 62 62 63 61 60 59 59 57 54 52 52 52 50 48 45 44 43 41 40 41 41 40 41 42 42 42 46 50 52 54 55
67 61 55 52 49 45 41 37 33 30 29 28 27 25 23 22 22 23 26 29 29 32 35 38 44 49 53 58 66 74 81 86 87 88 94 99 103 107 108 106 104 103 101 96 91 89 87 85 84 81 77 73 70 69 68 66 65 66 68 66 64 63 62 61 58 55 54 51 47 46 45 43 42 42 40 37 39 39 40 43 43 41 40 44 48 50 52 54
69 62 57 53 50 46 41 36 32 29 27 26 25 24 21 20 20 20 22 24 26 28 31 34 38 43 49 54 61 70 77 81 82 86 90 94 98 103 106 106 105 104 101 96 93 91 89 88 86 82 76 73 73 73 71 68 68 71 71 68 66 64 63 61 58 56 53 46 42 42 41 40 40 40 38 36 39 43 44 44 42 40 39 42 45 48 51 54
70 63 58 54 51 47 41 36 31 28 25 23 22 21 19 18 18 18 19 21 22 25 28 31 34 40 46 52 58 65 71 74 78 83 88 90 93 98 101 102 103 103 101 96 93 91 90 89 85 80 77 76 77 76 73 70 72 74 72 69 67 65 64 61 58 55 48 40 41 42 39 37 38 39 39 39 42 45 45 44 42 39 39 41 44 48 50 53
70 64 59 55 52 47 41 36 32 29 26 22 19 18 17 15 16 16 17 19 20 24 28 31 35 40 46 51 55 59 63 68 74 79 84 86 88 91 94 97 99 99 98 94 91 90 89 87 84 81 80 79 77 76 74 72 73 73 71 68 66 64 63 59 55 50 42 38 43 43 38 35 36 39 42 42 44 45 45 44 41 37 37 40 43 46 48 50
71 65 60 56 53 48 41 36 33 30 26 21 18 16 14 13 13 14 15 16 20 23 27 31 35 39 45 49 51 52 57 64 70 75 79 82 84 87 90 93 96 96 94 91 90 90 89 87 85 83 81 78 75 73 70 68 69 70 68 65 63 61 59 54 51 46 41 41 45 44 37 32 34 40 43 42 44 46 46 44 39 35 37 39 40 42 45 48
72 65 60 57 54 49 42 37 34 31 26 21 17 15 13 11 10 11 11 13 17 21 25 29 33 38 42 44 45 48 54 60 66 71 75 78 81 83 85 89 92 93 92 91 91 90 88 85 82 80 78 76 72 70 68 67 68 69 67 64 62 59 55 52 50 47 43 44 47 45 37 30 32 39 43 44 46 46 45 42 37 35 36 38 39 40 43 47
73 66 60 56 54 49 42 37 34 30 25 20 17 15 12 10 8 8 9 11 14 18 23 27 31 35 38 40 42 46 51 57 62 67 71 74 76 79 81 84 87 88 89 90 90 89 86 82 79 77 76 74 71 70 69 69 70 70 69 65 61 58 56 54 52 49 47 48 49 44 35 30 33 39 44 44 45 45 43 40 37 35 36 38 39 39 42 45
73 67 60 56 54 50 43 37 34 30 25 20 17 15 13 10 7 5 6 8 12 17 21 25 29 31 33 36 38 42 48 54 58 63 67 69 72 75 78 81 83 84 86 88 89 88 85 82 80 78 76 74 72 71 70 69 69 70 67 62 59 59 58 56 53 51 50 50 48 42 36 33 34 40 43 44 44 44 42 41 39 36 35 37 38 39 42 44
73 67 60 55 53 51 45 38 35 31 26 22 19 16 14 10 7 4 3 6 10 14 18 22 25 28 30 33 35 40 45 50 54 59 63 66 68 71 74 77 79 81 85 88 89 88 85 82 80 78 77 76 75 74 72 70 70 68 63 60 62 62 60 57 54 52 50 48 46 43 38 35 36 40 43 43 43 43 43 42 40 36 35 36 37 39 42 44
74 68 61 56 53 51 46 40 36 33 28 24 21 18 15 12 8 5 3 4 7 11 15 19 23 26 28 30 33 38 43 47 51 56 60 63 66 68 71 74 77 80 85 88 89 89 86 84 81 79 78 78 78 77 74 72 70 67 64 64 65 61 57 55 53 50 49 47 46 44 40 36 37 40 43 44 44 44 45 43 39 36 35 35 35 38 41 44
75 69 62 56 53 51 47 40 36 33 29 25 22 20 17 13 10 7 4 3 5 8 12 17 21 25 27 29 33 37 41 45 49 53 56 60 63 66 69 73 76 81 85 87 89 88 87 85 83 81 81 81 80 77 73 71 70 68 67 67 64 61 58 56 53 51 49 48 46 44 40 36 36 39 43 45 45 46 46 43 39 37 35 34 35 38 42 46
75 69 62 56 53 52 48 41 37 33 29 25 22 21 19 15 11 8 5 3 3 5 9 15 20 24 26 29 32 37 41 45 48 51 54 57 60 64 67 71 76 81 84 87 88 88 87 86 84 83 84 82 78 72 69 69 69 66 64 64 62 60 58 56 55 53 51 48 47 45 41 38 37 38 41 44 45 46 46 43 39 37 35 34 35 38 43 46
75 70 63 56 53 52 48 42 37 33 29 26 24 23 20 16 12 9 6 4 2 3 7 14 19 24 26 29 31 35 38 43 47 51 53 56 59 61 64 69 75 80 84 86 86 86 87 86 85 85 82 77 73 71 71 71 69 66 64 63 61 59 57 55 54 51 49 48 47 45 42 39 38 38 40 42 45 46 46 42 39 38 36 35 36 39 42 45
76 70 64 57 52 50 47 41 36 33 30 27 25 23 21 17 13 10 7 5 2 2 6 13 18 23 27 30 33 35 38 41 44 48 52 56 59 62 65 69 74 79 82 84 86 87 87 86 85 82 78 74 74 76 77 75 72 71 69 66 63 59 57 55 52 50 48 46 45 44 41 39 39 38 40 42 45 47 45 41 40 39 37 35 37 39 41 43
76 70 64 57 51 48 45 40 34 31 28 26 24 23 20 17 14 11 9 6 3 1 5 12 17 21 25 28 31 34 38 40 43 47 51 56 59 62 66 70 73 78 82 84 87 88 87 86 84 81 78 78 79 80 80 78 75 73 70 67 63 60 57 55 53 51 48 46 45 43 40 39 39 39 41 43 45 47 45 41 41 41 37 35 37 38 39 41
75 70 64 58 51 47 45 40 35 30 27 25 25 23 20 17 14 12 10 8 5 0 5 11 16 20 23 25 28 31 35 39 42 45 49 54 58 61 63 68 73 77 81 83 85 86 85 84 83 82 81 81 82 82 81 77 74 71 68 65 62 60 59 57 55 51 48 46 45 43 41 41 41 41 42 43 44 46 44 42 43 42 39 37 37 38 38 40
74 69 64 58 51 46 44 41 35 31 28 26 25 23 20 17 15 13 11 8 5 1 5 11 15 18 20 24 27 29 33 37 40 44 47 51 54 56 58 63 69 75 79 82 84 85 86 86 84 83 81 79 77 75 72 69 68 67 66 64 62 61 59 57 54 51 49 48 46 44 43 43 42 42 42 42 43 44 43 43 43 42 40 38 37 37 38 39
76 70 64 57 52 47 44 41 36 31 28 26 25 23 20 18 15 13 11 8 5 2 5 11 15 17 19 23 26 28 31 35 38 41 44 47 50 53 56 61 67 74 78 81 82 83 84 85 84 82 78 75 72 69 67 67 67 67 66 64 62 61 59 57 55 53 52 50 49 47 45 43 41 41 42 42 43 43 43 43 44 43 40 38 37 38 39 39
75 69 64 57 51 45 42 39 36 31 28 24 23 23 20 18 16 13 11 8 4 3 6 11 15 18 19 22 25 27 29 33 37 40 42 45 49 53 57 62 68 73 76 78 80 81 81 81 81 80 77 76 74 71 69 69 68 67 65 63 62 61 59 58 55 54 53 51 49 48 47 44 42 41 42 42 42 42 43 44 45 44 42 40 39 39 40 40
73 67 63 56 50 44 40 38 34 30 26 23 22 21 20 18 16 13 10 8 4 3 7 11 14 17 19 21 24 27 28 31 37 41 44 47 51 55 59 63 68 71 73 75 77 78 79 80 80 80 78 77 75 74 71 69 68 67 66 64 63 61 59 58 55 53 52 51 49 48 47 45 44 42 42 42 42 42 43 44 46 45 43 42 40 39 39 40
72 66 62 56 50 45 40 37 33 29 25 22 20 20 18 17 15 13 10 7 3 3 7 11 14 16 18 20 24 27 29 32 35 39 43 48 52 56 59 63 67 69 72 75 75 76 78 80 81 81 79 77 76 75 74 72 69 68 67 66 64 61 59 57 55 52 50 49 48 47 45 44 42 41 42 43 43 43 43 44 45 45 44 42 40 39 40 40
74 67 62 56 50 44 38 35 32 29 25 21 19 18 17 16 14 12 10 6 3 4 8 11 14 16 18 20 23 27 31 33 35 37 41 46 50 53 56 58 61 66 70 72 73 74 77 79 81 81 80 78 77 75 75 73 72 70 69 66 64 62 60 57 53 50 49 48 47 46 44 42 41 41 42 43 43 43 43 44 46 46 45 43 41 41 41 41
73 66 61 56 49 43 38 34 31 28 25 21 18 16 16 16 14 12 9 5 2 5 9 11 13 16 19 20 23 27 31 33 35 38 41 44 47 50 52 53 56 60 65 69 71 73 74 77 79 80 80 79 78 76 75 74 73 72 69 67 64 62 59 56 53 51 50 49 47 46 44 42 41 42 43 43 43 42 42 44 47 48 46 44 43 44 43 42
71 64 59 55 49 43 37 33 30 27 24 21 17 15 15 15 14 12 9 5 2 5 10 12 13 15 19 21 24 27 30 33 35 38 41 43 46 48 50 51 54 57 61 66 70 73 74 76 78 79 79 79 79 78 76 74 73 72 69 66 64 61 58 56 54 53 52 51 48 46 44 43 43 43 43 43 42 42 43 45 47 48 47 45 44 44 43 42
Wind_Direction
282 280 277 275 273 270 268 265 263 261 260 259 258 257 255 253 251 249 248 247 246 246 246 245 246 246 245 244 242 241 240 240 238 236 235 236 234 233 237 236 234 236 238 239 240 240 240 241 242 243 243 243 243 244 243 242 241 241 241 240 238 237 236 236 236 235 233 234 239 242 242 241 242 244 244 244 241 237 236 234 232 230 227 227 224 224 226 226
286 282 279 276 273 270 268 266 264 262 260 259 258 257 256 254 252 250 249 247 246 246 246 246 247 247 247 246 244 242 241 241 240 238 237 238 237 236 237 238 235 235 239 240 240 241 242 243 243 243 243 244 244 244 244 242 242 242 241 239 236 236 235 235 235 235 234 235 238 241 242 240 240 243 242 242 241 237 235 234 232 230 227 226 225 223 225 226
290 287 285 281 277 273 269 266 264 263 261 259 258 257 256 255 253 252 250 249 247 247 246 246 247 247 247 247 245 244 242 242 242 241 239 239 240 238 237 238 237 235 239 242 242 243 244 244 245 244 243 243 244 244 244 243 243 242 240 238 235 235 234 234 235 235 235 235 236 239 241 240 240 243 243 241 240 237 234 234 232 229 227 227 226 224 225 226
292 290 288 285 282 277 273 269 265 262 260 259 258 257 256 255 254 253 251 250 249 248 247 246 246 246 246 246 245 245 244 243 243 243 241 240 240 240 238 238 238 236 238 242 243 244 244 245 245 245 244 243 244 244 244 243 243 242 240 237 234 233 232 233 234 234 234 235 236 237 240 241 240 242 243 241 239 238 235 234 232 229 228 228 228 226 227 228
292 291 289 287 284 281 276 272 268 265 261 259 257 256 255 254 253 253 252 251 250 249 248 247 246 246 246 245 244 244 244 244 245 244 243 242 241 241 240 239 239 238 239 241 243 244 245 244 245 244 244 244 244 245 245 244 242 240 239 236 234 233 232 233 233 233 234 235 236 237 239 240 240 241 242 242 240 238 237 235 233 231 230 229 230 230 230 232
293 291 289 287 284 282 278 274 270 267 263 260 258 255 254 253 252 252 251 251 250 249 248 247 247 246 246 245 244 243 243 244 244 245 243 242 241 241 241 241 240 240 240 241 243 244 244 244 244 244 243 243 243 244 244 243 241 238 237 236 235 234 233 234 234 234 235 235 236 237 238 239 241 241 242 243 242 240 238 236 234 232 231 230 232 233 233 234
293 291 288 286 284 281 278 275 271 267 264 261 259 256 254 252 251 250 249 249 249 249 248 248 247 246 246 245 244 243 243 244 243 243 242 241 241 241 241 241 241 241 241 242 243 244 245 244 243 243 242 242 242 242 243 243 241 238 237 237 236 234 234 235 235 235 235 235 235 236 237 239 241 242 242 243 243 241 239 238 236 233 232 231 233 235 234 233
292 290 287 285 283 280 278 275 272 268 265 262 259 257 255 253 251 249 248 247 247 247 247 247 247 246 245 245 244 243 243 244 243 241 242 241 241 241 241 241 241 241 242 243 244 245 245 245 245 244 242 241 240 240 241 242 241 238 237 237 235 235 234 235 236 236 236 236 236 236 238 240 241 242 242 242 243 242 241 239 238 235 234 234 236 237 236 234
291 288 286 284 281 279 276 274 271 269 266 263 260 257 255 253 251 249 248 246 245 245 245 245 246 246 245 245 244 243 242 243 242 241 241 241 240 240 240 240 241 241 242 243 244 245 245 245 244 243 241 240 239 239 240 241 241 238 238 237 235 234 234 235 236 236 237 237 238 238 239 240 241 242 242 243 243 243 242 241 239 238 236 236 237 238 238 236
290 288 285 282 279 276 274 271 269 267 265 262 260 257 255 252 250 249 248 246 245 244 243 243 243 244 244 244 244 243 242 242 240 240 240 241 240 240 240 240 240 241 241 242 243 243 244 243 241 241 240 240 240 239 240 240 240 237 237 237 235 235 236 236 237 238 238 238 239 239 239 241 242 242 243 244 244 243 242 242 240 239 238 237 237 238 237 236
291 288 285 281 278 275 272 270 267 265 263 262 260 257 254 252 250 248 247 246 245 244 242 242 241 241 241 242 242 241 241 242 241 239 240 241 241 241 240 240 240 241 241 241 242 242 242 241 240 240 240 240 240 239 239 238 237 236 235 237 237 236 237 237 238 239 239 240 240 240 239 240 242 244 244 245 244 244 243 242 241 239 238 238 239 239 238 239
293 290 287 283 279 276 273 270 267 265 263 261 260 258 255 252 250 247 246 245 244 243 242 241 240 239 239 239 239 238 240 242 242 240 240 240 240 240 240 240 240 240 241 241 241 241 240 240 240 240 239 239 239 239 239 238 237 236 235 236 238 237 237 239 239 240 240 240 240 239 239 241 244 244 243 244 244 243 243 242 241 239 238 240 241 242 241 241
296 292 288 284 280 276 273 269 267 264 262 260 259 257 256 254 251 248 246 244 243 242 242 241 240 238 238 237 237 237 239 241 242 240 238 238 238 238 238 238 239 239 239 239 240 239 239 239 239 239 239 239 239 239 238 237 236 236 235 234 237 238 238 240 241 241 241 240 241 239 238 241 243 242 241 242 243 242 242 242 240 239 239 240 242 242 242 241
298 294 289 285 281 277 273 270 268 265 263 261 259 257 256 254 252 250 247 245 243 241 240 240 239 238 236 236 236 236 236 238 239 239 237 237 237 237 237 237 237 237 237 238 238 238 238 238 238 237 238 239 240 239 238 237 236 236 235 234 236 238 238 240 241 241 242 241 242 240 237 238 240 240 240 241 242 241 241 241 240 239 239 240 241 241 242 242
300 296 292 287 283 280 277 274 271 268 265 263 260 258 256 255 254 252 249 246 244 242 240 239 238 237 235 235 236 235 234 235 236 237 236 236 237 236 235 235 236 236 236 236 236 237 237 237 236 236 236 237 238 239 238 238 237 237 237 235 236 237 236 239 240 241 242 242 243 241 236 237 239 239 239 240 241 241 240 239 239 239 239 240 240 241 241 242
304 300 295 291 287 283 280 277 274 271 268 265 263 261 259 257 255 253 251 249 246 243 241 239 237 236 233 233 234 234 233 234 234 235 234 234 235 235 234 233 234 235 235 235 235 235 235 235 235 235 235 235 237 238 238 239 239 239 239 237 237 237 236 238 240 240 240 242 243 242 236 237 240 239 238 238 238 239 238 238 238 238 239 240 240 240 241 241
308 303 299 294 290 286 283 279 276 273 271 269 267 266 264 261 258 255 253 250 248 246 243 240 238 236 233 232 233 233 232 232 233 233 232 231 232 233 233 232 232 233 233 234 234 234 234 235 234 234 234 235 237 238 239 240 242 242 240 238 238 237 236 238 239 238 239 241 242 241 236 236 239 240 238 236 236 237 238 237 236 237 238 240 241 241 241 240
311 307 302 298 294 290 286 283 280 278 276 273 271 269 267 264 261 257 254 251 249 247 244 242 240 236 233 232 232 231 231 231 232 232 230 230 231 232 232 231 230 230 231 232 232 232 233 233 233 233 233 234 237 240 242 242 241 240 236 234 234 235 235 236 237 237 237 238 239 239 236 234 236 239 238 236 235 236 237 237 236 236 238 240 242 242 242 241
315 310 306 301 297 293 290 287 286 283 280 278 275 271 268 264 261 256 253 251 248 246 244 242 241 237 234 232 231 231 230 230 230 230 229 229 229 231 231 231 230 230 230 231 231 232 232 232 233 233 234 235 237 239 239 237 237 235 232 230 230 229 230 233 235 235 235 237 238 238 236 233 235 238 238 237 235 236 237 237 237 237 237 238 240 242 241 241
318 314 309 305 301 296 293 291 289 286 283 281 279 275 270 265 260 255 251 249 246 244 242 240 239 237 235 233 232 231 229 229 229 229 228 228 229 230 230 231 231 231 230 231 231 231 231 232 232 233 234 234 234 234 234 233 233 233 232 231 230 229 228 230 233 234 235 236 237 238 237 235 235 238 240 239 239 239 240 240 239 237 237 237 238 239 240 240
322 317 313 308 304 299 296 294 291 287 284 283 281 277 272 266 260 254 250 246 244 242 240 237 236 235 234 234 233 232 229 228 228 228 227 227 228 229 229 230 231 231 231 231 231 231 231 230 231 232 232 232 231 231 232 232 233 233 233 232 232 231 228 228 232 234 234 235 236 238 238 237 237 238 240 241 242 244 245 243 240 237 236 237 237 237 238 239
326 321 317 313 308 303 300 298 293 289 286 284 281 277 273 266 259 253 248 245 242 240 238 236 233 232 232 234 234 232 230 228 228 228 227 226 227 228 229 229 229 230 231 231 231 231 231 230 229 230 231 231 231 231 231 232 233 234 234 233 233 232 230 229 231 233 234 234 235 237 238 238 237 239 241 243 244 245 245 244 241 238 236 236 237 237 237 237
330 326 322 318 312 307 305 303 299 294 290 287 282 277 272 265 259 252 247 244 241 238 236 235 232 229 230 231 232 231 229 229 228 228 226 225 226 227 228 228 228 229 230 230 230 230 229 228 228 229 229 230 230 230 231 232 234 235 235 234 233 232 231 230 231 232 232 232 234 236 237 238 238 241 242 243 244 245 244 244 242 240 237 236 236 237 236 236
334 330 326 322 316 312 311 309 305 299 294 290 284 278 272 265 259 252 246 243 242 238 234 234 230 227 227 229 231 230 228 228 228 228 227 225 225 226 227 227 227 228 229 230 230 229 227 226 227 227 228 229 229 230 230 231 233 234 234 233 232 231 231 230 230 232 231 231 233 234 235 237 240 242 244 243 243 243 244 244 243 241 238 235 234 235 235 235
338 334 331 326 321 318 316 314 309 302 297 294 287 281 274 267 260 253 246 242 242 239 233 232 230 226 226 226 227 227 226 227 227 227 226 225 225 226 226 226 226 227 228 229 229 228 226 225 226 226 226 227 228 228 229 230 231 232 232 231 230 230 229 229 230 231 232 232 233 235 236 237 239 241 243 243 243 243 243 243 243 242 240 236 233 233 233 234
341 338 335 331 327 324 321 318 313 306 301 298 293 285 278 271 262 254 248 243 242 239 231 230 230 227 225 224 223 223 224 225 226 225 225 225 225 225 226 225 225 226 227 228 228 227 226 225 226 226 226 227 227 227 227 228 230 231 230 229 228 228 228 228 230 231 233 233 234 236 236 236 238 239 242 243 243 243 242 241 241 240 240 237 234 232 231 233
344 341 338 335 333 329 326 322 318 313 307 304 300 291 283 275 264 255 250 245 243 239 231 227 228 228 225 222 221 220 220 223 224 223 223 224 224 224 225 225 224 225 226 227 226 226 226 226 227 226 226 226 227 227 227 227 229 229 230 229 228 228 227 228 229 231 233 234 235 236 235 235 237 239 241 243 244 245 244 242 241 239 238 236 234 231 229 231
346 344 342 340 338 334 330 327 323 319 312 308 305 298 290 280 267 257 252 247 242 238 233 227 226 228 226 222 220 218 219 221 222 220 221 222 223 223 223 223 223 224 225 226 226 226 226 226 227 227 226 226 226 226 227 226 227 227 228 228 227 227 227 228 229 230 232 233 234 236 235 234 236 238 239 241 243 245 245 243 241 238 237 235 234 231 228 230
348 346 345 343 342 338 334 331 328 324 317 311 307 301 296 286 271 259 253 248 241 236 232 227 224 225 225 222 219 217 218 219 219 219 219 220 221 222 222 222 222 222 223 223 223 224 225 225 226 226 225 225 224 224 224 225 225 225 226 226 226 226 227 228 229 229 231 233 235 238 237 235 235 238 238 239 241 242 240 239 238 236 235 235 234 233 230 230
349 348 347 346 345 342 338 336 334 330 324 316 309 304 300 292 276 261 255 250 243 235 230 226 222 221 222 221 219 217 217 217 217 217 218 219 219 220 221 220 220 221 221 221 220 222 223 224 225 225 224 223 222 221 221 221 222 224 225 225 225 226 227 229 229 230 233 235 238 240 238 234 234 237 237 236 237 237 236 236 237 235 233 233 233 232 229 230
351 350 349 349 348 345 341 340 340 337 330 321 312 305 302 297 282 264 253 246 240 232 225 220 216 215 217 218 218 217 217 216 215 216 217 218 218 219 219 220 219 220 220 219 219 220 222 223 224 224 223 223 222 221 219 218 220 223 225 225 226 226 228 229 230 233 236 237 240 240 237 232 230 233 234 232 233 236 236 236 237 237 236 234 232 231 228 229
352 351 350 350 351 348 344 344 345 344 337 328 319 310 304 300 287 269 254 242 232 225 219 214 209 208 211 215 215 215 215 215 214 215 216 217 217 218 218 219 219 220 219 219 219 220 221 222 223 223 223 223 222 222 220 219 221 224 225 226 228 229 230 232 234 237 237 236 239 240 236 230 226 228 231 231 233 236 236 235 235 236 237 236 234 232 230 229
353 353 351 351 352 350 348 348 349 349 342 335 330 321 312 305 292 273 257 244 231 222 216 212 208 206 209 213 213 211 212 213 212 213 215 216 216 216 216 217 218 218 218 218 218 220 220 221 221 222 223 223 223 222 222 222 224 227 228 228 230 232 234 236 237 238 235 234 238 238 234 227 222 225 230 231 233 234 235 235 233 233 236 237 235 232 230 229
353 354 353 351 352 353 351 351 353 351 345 341 340 335 325 315 300 277 257 244 234 224 216 211 208 207 208 210 210 207 208 210 211 211 213 214 215 215 215 214 215 216 215 216 217 219 219 220 221 222 223 223 223 222 221 221 223 226 227 228 229 231 233 234 235 235 232 232 236 236 231 223 219 224 228 229 231 234 236 236 232 231 235 237 235 232 228 228
354 355 354 353 353 354 353 354 356 353 348 347 349 348 341 331 314 288 262 243 233 223 216 211 208 207 207 207 206 204 205 206 208 209 211 212 213 214 214 213 213 213 214 214 216 217 217 218 219 220 221 221 221 221 220 220 221 223 223 224 226 228 229 230 230 229 228 229 233 234 231 223 218 221 226 228 231 234 237 237 233 230 233 236 235 231 229 228
355 355 355 354 354 355 355 356 359 357 354 355 358 359 356 346 334 309 273 247 232 223 217 212 208 206 206 205 204 202 203 204 205 206 208 209 210 211 211 211 211 211 211 213 215 216 216 215 215 216 217 218 219 219 219 220 222 223 223 223 223 225 225 226 227 227 227 228 231 232 229 223 219 220 225 227 230 233 235 236 234 230 230 235 234 230 228 227
355 356 356 355 356 356 356 358 0 359 359 2 5 7 6 360 354 343 295 255 238 227 219 213 207 203 202 202 201 200 201 202 203 203 205 206 207 208 209 209 209 208 208 210 212 214 214 214 213 213 214 215 216 216 216 217 220 222 222 222 223 223 223 224 225 226 227 229 231 231 228 225 221 220 223 226 228 231 233 234 234 231 229 232 233 231 228 227
355 356 356 357 357 357 357 359 2 2 3 6 9 11 12 10 9 8 340 272 246 233 220 211 204 200 198 198 197 197 199 200 200 201 203 203 204 205 206 206 206 205 206 207 209 211 212 212 212 212 212 212 213 214 214 215 217 218 218 219 221 223 224 226 227 227 228 228 229 230 229 226 224 221 221 224 226 229 231 232 232 230 229 230 231 231 228 226
355 356 357 357 358 358 359 0 4 5 6 8 12 14 14 14 15 19 7 307 261 239 221 210 202 196 194 193 193 194 195 196 198 199 200 200 201 201 202 203 203 203 203 205 207 208 211 211 211 211 211 212 213 213 213 215 217 217 217 218 219 220 221 223 225 226 227 227 227 229 228 226 226 224 223 223 226 229 231 231 231 229 229 231 230 229 228 226
355 356 358 358 358 359 359 1 5 7 8 11 15 19 17 14 16 22 17 341 283 244 219 207 199 194 190 190 191 192 193 194 194 196 197 197 199 199 199 199 200 200 201 203 204 206 208 210 210 210 211 211 212 212 213 216 217 218 219 220 221 221 221 221 222 223 224 224 225 227 227 226 227 226 225 224 226 230 231 230 229 228 229 232 233 230 229 227
356 356 357 359 360 359 359 1 5 7 10 14 17 19 17 14 16 21 19 4 315 242 213 203 197 192 187 187 190 192 194 194 193 193 194 194 195 197 198 198 198 198 199 200 201 204 206 208 209 210 211 211 211 211 213 215 215 216 217 219 221 222 223 224 224 225 225 224 225 226 226 225 226 225 225 224 225 229 231 228 227 227 227 231 234 233 231 229
356 356 357 359 0 359 358 1 5 8 11 15 18 19 17 14 16 19 17 8 346 244 209 200 196 193 189 186 187 188 190 193 194 193 192 191 192 194 195 196 196 197 197 198 199 201 204 206 207 209 209 209 210 211 212 213 213 213 214 214 216 219 221 224 225 226 226 225 226 227 226 227 227 225 224 223 223 228 230 226 225 226 225 229 234 235 233 230
355 356 356 358 360 359 358 1 7 10 11 16 20 21 18 16 18 21 18 9 360 270 205 198 194 194 192 189 188 187 188 190 192 192 192 190 190 192 193 193 194 195 195 197 198 199 201 204 205 206 207 207 209 211 211 212 212 213 214 214 214 215 218 220 222 224 224 225 226 227 227 228 229 227 224 223 222 225 228 226 225 225 223 226 233 236 235 232
355 355 356 357 359 359 359 0 6 10 13 17 21 20 20 20 20 23 21 13 7 37 190 193 193 193 190 187 187 188 188 189 190 191 192 191 191 192 193 192 192 193 194 196 198 198 199 202 204 204 205 207 209 211 212 213 213 213 215 215 216 216 216 217 219 220 221 222 224 226 228 228 229 228 226 224 223 224 225 225 226 225 221 223 230 234 235 234
355 355 356 356 357 359 360 1 5 9 13 17 18 17 19 22 21 21 22 19 17 52 180 186 189 191 189 185 184 186 188 188 189 190 192 193 192 191 192 193 192 193 194 195 197 198 198 199 202 203 205 208 211 213 215 215 216 217 217 217 217 217 218 218 218 218 218 219 220 223 226 228 229 229 228 226 225 225 224 224 226 226 222 223 228 232 234 235
354 355 355 356 357 359 0 360 3 9 12 15 16 14 15 19 20 19 19 22 33 88 178 183 182 183 186 185 182 183 186 187 188 189 190 192 191 188 189 193 193 193 195 195 196 198 199 199 200 202 204 206 209 212 215 216 217 218 219 219 219 218 219 219 219 218 218 219 220 221 223 226 228 230 229 227 226 224 223 224 226 226 223 222 227 232 233 234
354 354 354 355 356 359 360 359 1 7 10 13 16 14 12 14 16 16 17 20 38 124 173 184 181 178 182 184 181 180 184 185 185 186 187 188 189 187 188 191 194 195 196 196 196 198 199 200 200 201 203 204 205 207 210 213 215 216 218 219 220 220 220 220 220 219 220 221 222 223 224 225 226 228 229 228 227 225 223 223 225 225 222 221 225 231 233 233
354 353 353 354 356 358 360 359 1 5 8 11 15 15 12 12 13 13 17 20 31 134 169 182 182 177 178 182 179 176 180 184 184 184 184 186 187 187 187 190 194 196 196 197 197 197 198 199 201 202 203 204 205 205 207 209 212 214 216 217 219 220 221 222 221 221 222 222 223 224 226 228 229 230 229 228 227 225 223 223 225 226 224 222 224 229 234 234
354 353 353 354 356 358 359 358 358 3 7 10 14 15 12 11 13 14 19 24 41 139 166 178 180 176 176 178 177 174 177 183 186 184 183 185 187 189 189 190 193 195 196 197 198 197 197 199 201 203 203 204 205 207 207 208 209 212 214 215 217 218 220 221 222 223 223 224 225 225 227 230 232 233 232 229 227 225 223 223 225 226 226 224 224 228 233 235
354 353 353 354 355 356 358 357 356 0 7 10 12 14 12 12 15 18 22 27 57 146 165 176 178 175 172 174 176 176 177 180 183 183 184 186 188 189 191 191 192 194 197 198 197 197 198 199 201 204 205 205 206 208 209 210 210 211 213 214 216 218 219 220 222 222 224 225 225 226 227 229 232 232 231 228 227 227 225 224 225 226 227 225 225 228 231 234
353 353 352 352 354 355 357 357 355 358 5 9 12 13 13 14 16 19 23 31 72 153 164 171 177 174 169 171 175 177 178 179 180 181 183 186 188 189 190 191 192 194 197 198 198 198 198 200 202 204 206 207 207 208 210 212 213 214 214 215 216 218 220 220 221 221 222 224 224 224 225 228 229 229 228 226 226 226 226 225 225 226 226 226 227 229 230 232
353 353 351 351 353 354 356 356 354 357 3 8 11 14 14 15 16 18 22 33 101 162 165 166 174 176 170 170 176 179 179 179 179 180 180 182 186 188 188 189 191 193 196 198 198 198 199 200 202 203 206 208 209 210 211 213 215 216 217 217 217 219 220 221 221 222 222 223 223 223 223 224 226 227 226 224 223 225 226 226 226 226 226 226 228 230 230 231
Height
10649 10647 10646 10644 10643 10642 10641 10640 10639 10638 10638 10637 10636 10636 10636 10636 10637 10637 10638 10639 10639 10640 10640 10642 10643 10645 10648 10651 10654 10656 10657 10657 10659 10661 10661 10660 10667 10671 10670 10672 10675 10677 10679 10679 10681 10684 10686 10687 10689 10691 10696 10699 10703 10705 10707 10713 10715 10719 10726 10737 10748 10752 10754 10754 10753 10753 10754 10751 10745 10744 10748 10755 10757 10755 10757 10762 10774 10783 10785 10790 10793 10796 10799 10799 10801 10803 10803 10801
10644 10642 10640 10638 10636 10635 10633 10632 10631 10630 10630 10629 10628 10628 10628 10628 10629 10629 10630 10631 10631 10632 10632 10634 10635 10638 10640 10644 10647 10650 10651 10651 10653 10653 10655 10658 10663 10665 10664 10666 10669 10673 10673 10674 10676 10679 10681 10682 10684 10688 10692 10695 10698 10698 10701 10707 10710 10716 10723 10732 10742 10746 10745 10743 10742 10744 10746 10746 10741 10740 10743 10749 10753 10749 10752 10759 10769 10777 10783 10787 10789 10793 10795 10796 10797 10799 10800 10798
10637 10635 10633 10631 10629 10627 10625 10624 10622 10621 10620 10619 10619 10619 10618 10619 10619 10620 10621 10622 10623 10623 10624 10625 10627 10630 10632 10636 10639 10642 10643 10644 10645 10646 10651 10655 10656 10657 10659 10660 10662 10667 10668 10668 10671 10674 10676 10678 10680 10684 10687 10690 10693 10692 10695 10702 10706 10712 10717 10728 10737 10734 10733 10734 10737 10739 10739 10736 10735 10737 10738 10744 10748 10744 10747 10756 10764 10773 10780 10783 10785 10789 10791 10792 10794 10795 10797 10796
10630 10628 10625 10623 10621 10619 10617 10615 10613 10612 10610 10610 10609 10608 10608 10608 10609 10610 10610 10612 10613 10613 10614 10615 10618 10620 10623 10628 10631 10634 10636 10637 10638 10639 10645 10648 10648 10650 10652 10654 10656 10661 10662 10663 10666 10668 10670 10673 10676 10679 10682 10686 10687 10686 10691 10698 10701 10706 10713 10723 10725 10721 10725 10729 10729 10730 10728 10728 10732 10734 10734 10739 10742 10739 10743 10751 10760 10769 10775 10777 10780 10785 10788 10789 10790 10791 10793 10792
10622 10619 10616 10614 10611 10609 10607 10605 10603 10602 10600 10599 10598 10598 10597 10597 10597 10598 10599 10600 10601 10602 10603 10605 10608 10610 10614 10618 10622 10626 10628 10629 10631 10631 10636 10639 10641 10642 10645 10648 10650 10654 10656 10657 10659 10660 10664 10668 10671 10674 10678 10681 10681 10683 10688 10691 10693 10700 10709 10714 10713 10716 10722 10721 10720 10721 10721 10724 10729 10731 10732 10733 10732 10735 10741 10746 10756 10765 10768 10772 10777 10782 10784 10786 10787 10787 10789 10788
10613 10610 10606 10604 10601 10598 10596 10594 10592 10590 10589 10587 10586 10586 10585 10585 10585 10586 10587 10588 10589 10591 10591 10594 10597 10600 10604 10608 10613 10617 10619 10623 10623 10622 10625 10630 10633 10634 10637 10641 10644 10647 10649 10651 10652 10653 10657 10661 10665 10668 10672 10674 10676 10680 10683 10683 10686 10696 10702 10704 10707 10713 10714 10712 10714 10715 10716 10720 10725 10726 10725 10724 10726 10734 10739 10742 10752 10759 10762 10767 10773 10777 10780 10782 10782 10782 10783 10782
10602 10598 10595 10591 10588 10586 10583 10581 10579 10577 10576 10574 10573 10572 10572 10572 10572 10573 10574 10575 10577 10578 10580 10583 10585 10590 10594 10598 10603 10607 10613 10614 10610 10610 10614 10620 10625 10627 10630 10633 10636 10640 10642 10644 10645 10648 10651 10656 10660 10663 10666 10669 10671 10675 10676 10675 10682 10692 10697 10698 10702 10706 10706 10706 10708 10709 10711 10716 10719 10718 10719 10721 10725 10730 10733 10739 10746 10750 10755 10761 10767 10771 10774 10777 10777 10776 10776 10776
10591 10587 10583 10579 10575 10572 10569 10566 10564 10563 10561 10560 10559 10558 10558 10558 10557 10559 10560 10562 10564 10565 10569 10571 10574 10579 10581 10588 10591 10598 10607 10598 10591 10600 10606 10611 10617 10618 10621 10625 10629 10633 10635 10637 10639 10642 10646 10651 10656 10657 10661 10663 10665 10668 10668 10670 10679 10689 10692 10692 10696 10699 10700 10700 10700 10703 10707 10710 10711 10713 10718 10721 10721 10723 10728 10736 10739 10743 10750 10755 10760 10766 10769 10771 10771 10769 10769 10771
10581 10576 10571 10566 10562 10558 10554 10551 10548 10546 10545 10543 10543 10542 10542 10542 10543 10544 10545 10548 10550 10553 10556 10558 10563 10565 10569 10577 10578 10591 10596 10574 10576 10594 10596 10601 10606 10607 10612 10617 10621 10625 10628 10630 10633 10637 10641 10646 10648 10649 10654 10656 10658 10662 10663 10668 10678 10684 10686 10686 10689 10692 10692 10693 10695 10698 10701 10704 10706 10711 10717 10717 10715 10717 10725 10732 10733 10738 10745 10749 10754 10759 10763 10766 10764 10762 10762 10767
10569 10563 10557 10552 10547 10542 10538 10534 10531 10528 10526 10525 10525 10524 10524 10525 10526 10528 10530 10532 10535 10538 10541 10544 10550 10552 10559 10563 10568 10585 10572 10550 10569 10586 10585 10591 10595 10599 10605 10609 10614 10617 10620 10623 10626 10630 10634 10636 10637 10641 10647 10650 10655 10658 10659 10666 10674 10678 10679 10679 10683 10686 10687 10689 10691 10693 10696 10700 10703 10709 10713 10710 10708 10715 10725 10727 10726 10733 10738 10742 10748 10753 10757 10758 10755 10753 10758 10765
10554 10547 10541 10534 10529 10524 10519 10516 10512 10509 10507 10505 10504 10504 10504 10505 10507 10510 10513 10516 10519 10522 10526 10530 10535 10540 10547 10551 10563 10568 10543 10540 10567 10574 10577 10584 10586 10592 10597 10602 10607 10609 10612 10615 10619 10623 10624 10625 10629 10636 10644 10647 10650 10652 10655 10662 10667 10670 10673 10674 10677 10681 10683 10686 10689 10689 10692 10697 10700 10703 10705 10704 10706 10717 10724 10718 10719 10728 10731 10736 10742 10747 10750 10748 10746 10749 10758 10763
10536 10529 10522 10515 10509 10504 10499 10495 10491 10489 10486 10484 10484 10483 10483 10484 10486 10491 10494 10499 10502 10505 10510 10514 10520 10527 10533 10542 10550 10541 10528 10542 10559 10561 10571 10575 10576 10583 10587 10593 10597 10600 10604 10607 10610 10613 10614 10618 10624 10634 10639 10641 10643 10646 10651 10657 10661 10664 10668 10672 10673 10676 10679 10683 10684 10684 10688 10692 10692 10693 10699 10702 10707 10715 10715 10708 10713 10722 10725 10730 10736 10739 10741 10740 10742 10748 10754 10757
10518 10510 10503 10495 10489 10483 10478 10474 10470 10467 10465 10463 10462 10460 10461 10462 10465 10470 10475 10480 10484 10488 10493 10498 10506 10511 10520 10530 10528 10521 10529 10541 10542 10548 10558 10560 10565 10572 10577 10584 10587 10590 10595 10597 10601 10603 10607 10612 10621 10629 10632 10635 10638 10642 10647 10651 10656 10659 10663 10668 10668 10672 10678 10679 10679 10679 10683 10686 10682 10686 10697 10702 10702 10704 10703 10700 10707 10715 10718 10723 10726 10730 10734 10735 10738 10743 10747 10751
10500 10492 10484 10477 10470 10463 10458 10453 10449 10446 10444 10443 10440 10438 10439 10440 10444 10450 10455 10461 10464 10470 10475 10481 10489 10495 10507 10513 10506 10512 10525 10525 10523 10531 10542 10550 10558 10562 10568 10573 10574 10580 10584 10587 10592 10596 10601 10608 10616 10623 10626 10632 10633 10636 10642 10645 10651 10653 10657 10664 10665 10670 10675 10673 10672 10675 10678 10678 10674 10681 10695 10698 10693 10693 10694 10695 10701 10708 10712 10715 10718 10724 10728 10729 10732 10737 10741 10745
10484 10475 10467 10460 10452 10445 10439 10434 10430 10428 10425 10423 10420 10417 10417 10420 10425 10430 10435 10440 10445 10451 10457 10464 10471 10479 10492 10494 10490 10502 10510 10508 10510 10518 10532 10546 10551 10552 10557 10561 10565 10571 10576 10580 10585 10589 10595 10602 10611 10617 10622 10626 10626 10631 10638 10641 10646 10649 10654 10662 10663 10667 10669 10666 10667 10671 10672 10669 10668 10678 10691 10690 10684 10684 10687 10691 10695 10700 10705 10708 10712 10718 10722 10724 10727 10731 10735 10740
10468 10459 10451 10443 10435 10428 10422 10416 10412 10409 10405 10403 10400 10397 10399 10403 10408 10412 10416 10420 10426 10433 10439 10446 10453 10462 10475 10476 10476 10486 10492 10494 10498 10507 10524 10537 10538 10539 10544 10552 10559 10564 10568 10572 10577 10583 10589 10598 10607 10612 10616 10619 10621 10628 10633 10637 10644 10647 10652 10658 10659 10662 10664 10661 10662 10666 10665 10662 10664 10674 10683 10682 10676 10676 10680 10685 10689 10692 10696 10700 10706 10712 10716 10718 10722 10726 10729 10735
10452 10443 10434 10426 10418 10411 10404 10398 10393 10390 10387 10385 10382 10382 10384 10387 10393 10396 10398 10402 10408 10415 10421 10427 10434 10446 10458 10460 10462 10468 10474 10479 10484 10496 10513 10523 10525 10526 10533 10546 10551 10553 10558 10562 10569 10578 10584 10593 10601 10606 10610 10614 10619 10624 10629 10637 10643 10644 10649 10652 10654 10657 10658 10657 10657 10659 10659 10657 10660 10666 10673 10674 10670 10669 10672 10678 10682 10685 10688 10693 10701 10708 10711 10712 10716 10720 10725 10730
10437 10428 10419 10410 10402 10394 10387 10381 10377 10374 10371 10369 10368 10368 10369 10371 10377 10381 10382 10386 10391 10397 10403 10409 10417 10432 10441 10443 10445 10448 10456 10466 10473 10484 10500 10511 10513 10513 10524 10535 10537 10541 10547 10553 10564 10572 10579 10588 10594 10599 10605 10611 10617 10622 10630 10637 10637 10637 10641 10643 10645 10649 10651 10651 10650 10653 10653 10652 10654 10659 10665 10667 10663 10661 10665 10671 10676 10678 10680 10687 10699 10706 10708 10709 10711 10715 10719 10723
10424 10414 10405 10396 10387 10380 10372 10367 10363 10358 10355 10353 10352 10354 10355 10356 10360 10364 10367 10370 10375 10380 10386 10392 10402 10415 10422 10424 10425 10430 10443 10454 10460 10472 10488 10498 10501 10503 10514 10521 10525 10533 10539 10547 10558 10566 10574 10582 10588 10597 10605 10611 10616 10620 10626 10628 10626 10628 10631 10634 10637 10640 10644 10645 10644 10646 10647 10647 10649 10652 10657 10659 10657 10656 10659 10666 10670 10671 10675 10686 10697 10703 10705 10706 10706 10709 10713 10715
10412 10401 10392 10383 10375 10367 10360 10355 10350 10345 10341 10339 10338 10339 10341 10342 10344 10348 10351 10354 10358 10363 10369 10375 10384 10396 10404 10405 10406 10415 10431 10442 10448 10460 10475 10486 10489 10493 10502 10510 10517 10525 10533 10543 10551 10558 10566 10575 10587 10598 10602 10605 10608 10611 10616 10618 10617 10620 10625 10629 10631 10635 10639 10639 10637 10639 10641 10643 10645 10646 10650 10653 10654 10653 10655 10662 10666 10669 10677 10687 10694 10698 10700 10701 10702 10704 10706 10708
10400 10390 10381 10373 10365 10356 10350 10346 10340 10334 10330 10328 10327 10326 10328 10330 10331 10333 10337 10340 10342 10345 10352 10359 10368 10381 10388 10387 10390 10404 10420 10430 10438 10448 10462 10473 10477 10482 10491 10500 10508 10519 10530 10535 10541 10549 10559 10574 10587 10592 10593 10595 10598 10603 10608 10610 10611 10615 10621 10625 10627 10631 10634 10633 10632 10632 10635 10639 10639 10640 10644 10649 10651 10650 10653 10659 10665 10671 10678 10683 10687 10691 10694 10696 10698 10700 10702 10703
10389 10379 10371 10363 10355 10346 10340 10336 10330 10324 10321 10319 10317 10315 10316 10318 10319 10322 10325 10326 10327 10330 10337 10344 10356 10369 10373 10372 10377 10393 10410 10421 10427 10434 10448 10461 10466 10472 10480 10489 10502 10513 10518 10523 10532 10544 10558 10574 10581 10581 10583 10586 10591 10596 10601 10604 10605 10610 10617 10620 10624 10627 10628 10628 10626 10626 10630 10634 10634 10635 10639 10644 10646 10647 10651 10658 10664 10669 10672 10676 10680 10685 10688 10691 10693 10696 10697 10699
10379 10370 10362 10354 10346 10337 10332 10327 10321 10316 10312 10311 10308 10306 10307 10307 10309 10312 10314 10314 10312 10317 10325 10333 10346 10356 10357 10357 10362 10383 10404 10409 10413 10422 10437 10450 10457 10462 10469 10481 10494 10501 10506 10516 10529 10541 10555 10568 10569 10569 10574 10577 10584 10590 10595 10598 10601 10607 10613 10617 10620 10621 10623 10624 10621 10620 10624 10627 10629 10631 10635 10640 10643 10645 10651 10657 10661 10664 10666 10669 10674 10679 10684 10686 10688 10691 10693 10694
10371 10361 10353 10346 10338 10330 10324 10318 10313 10308 10304 10303 10300 10298 10299 10298 10300 10302 10303 10304 10300 10307 10320 10326 10334 10340 10340 10343 10354 10377 10392 10392 10398 10411 10426 10439 10445 10450 10459 10472 10482 10490 10500 10511 10522 10533 10547 10555 10555 10558 10565 10570 10577 10583 10589 10594 10597 10603 10608 10612 10615 10615 10617 10618 10615 10615 10617 10621 10624 10626 10630 10636 10641 10645 10649 10654 10657 10659 10661 10665 10670 10674 10677 10680 10683 10685 10687 10687
10363 10354 10346 10338 10330 10323 10317 10312 10307 10302 10298 10296 10294 10292 10291 10291 10293 10293 10294 10295 10292 10302 10316 10317 10320 10325 10328 10336 10348 10364 10374 10377 10386 10400 10415 10427 10433 10439 10448 10459 10471 10484 10494 10502 10512 10524 10537 10543 10545 10550 10557 10563 10570 10578 10584 10588 10591 10596 10602 10608 10609 10608 10611 10611 10610 10610 10611 10617 10620 10621 10628 10636 10640 10643 10646 10650 10653 10655 10658 10662 10666 10668 10670 10675 10677 10679 10680 10680
10357 10348 10340 10332 10324 10317 10311 10306 10301 10296 10292 10290 10288 10286 10285 10285 10286 10286 10287 10288 10288 10298 10308 10308 10309 10314 10318 10327 10339 10351 10362 10367 10373 10387 10403 10413 10420 10428 10436 10449 10466 10478 10484 10490 10502 10516 10528 10534 10536 10543 10551 10556 10564 10572 10578 10582 10585 10591 10598 10601 10601 10601 10604 10604 10604 10605 10608 10614 10616 10619 10628 10634 10636 10640 10643 10646 10648 10651 10655 10659 10662 10664 10666 10668 10669 10671 10673 10673
10351 10343 10335 10327 10319 10312 10306 10301 10295 10291 10287 10285 10283 10282 10281 10280 10281 10281 10281 10282 10286 10292 10297 10300 10301 10305 10312 10322 10332 10342 10350 10351 10358 10378 10394 10400 10408 10417 10426 10442 10458 10467 10471 10479 10495 10511 10521 10526 10530 10537 10544 10551 10561 10569 10573 10577 10581 10588 10591 10592 10593 10595 10597 10597 10599 10602 10606 10610 10612 10617 10626 10632 10634 10638 10641 10643 10644 10648 10652 10655 10657 10659 10660 10660 10660 10662 10666 10667
10346 10338 10331 10323 10315 10308 10302 10297 10291 10287 10283 10280 10279 10277 10276 10276 10276 10277 10277 10278 10282 10285 10289 10294 10297 10300 10309 10317 10323 10331 10335 10338 10350 10370 10379 10384 10395 10405 10417 10433 10447 10455 10461 10475 10494 10507 10512 10518 10523 10530 10538 10548 10559 10564 10567 10570 10576 10581 10581 10582 10585 10587 10588 10590 10594 10600 10602 10605 10610 10617 10624 10630 10633 10635 10638 10640 10642 10645 10649 10650 10651 10652 10654 10654 10653 10656 10660 10662
10342 10334 10327 10320 10312 10305 10299 10293 10288 10284 10280 10277 10275 10273 10272 10273 10273 10273 10273 10275 10277 10280 10283 10288 10292 10296 10302 10309 10314 10320 10324 10330 10345 10359 10364 10372 10385 10396 10408 10422 10434 10443 10452 10470 10487 10494 10501 10509 10513 10520 10532 10544 10551 10555 10557 10563 10569 10570 10568 10572 10577 10579 10581 10585 10592 10597 10598 10605 10613 10617 10622 10628 10630 10631 10635 10639 10640 10641 10642 10641 10643 10646 10649 10649 10649 10652 10656 10658
10339 10331 10324 10317 10309 10303 10296 10291 10286 10281 10277 10274 10272 10270 10269 10269 10270 10270 10270 10272 10273 10276 10279 10283 10288 10292 10296 10302 10307 10311 10316 10325 10339 10350 10355 10365 10376 10386 10397 10411 10423 10433 10445 10462 10476 10483 10492 10497 10501 10514 10528 10535 10538 10541 10546 10555 10558 10556 10558 10566 10571 10574 10577 10583 10589 10593 10598 10609 10615 10615 10619 10625 10627 10628 10632 10635 10634 10633 10633 10635 10638 10641 10643 10644 10645 10648 10651 10653
10336 10328 10321 10314 10307 10300 10294 10289 10284 10279 10276 10273 10270 10268 10267 10267 10267 10267 10267 10268 10270 10272 10274 10277 10281 10286 10290 10294 10299 10304 10312 10323 10335 10342 10347 10357 10367 10377 10389 10402 10415 10426 10438 10455 10468 10476 10482 10488 10499 10514 10521 10523 10526 10531 10539 10546 10547 10547 10553 10561 10565 10570 10574 10580 10587 10592 10603 10613 10611 10610 10616 10621 10624 10626 10627 10628 10626 10626 10629 10633 10635 10637 10639 10640 10641 10643 10646 10649
10335 10327 10319 10313 10306 10300 10293 10287 10282 10278 10274 10272 10269 10267 10266 10265 10265 10265 10265 10265 10266 10267 10269 10271 10275 10279 10282 10285 10291 10301 10311 10321 10330 10336 10343 10353 10364 10375 10387 10401 10413 10423 10437 10454 10465 10471 10477 10486 10497 10505 10509 10513 10520 10527 10534 10540 10541 10543 10550 10558 10563 10569 10573 10580 10588 10596 10606 10610 10604 10605 10612 10618 10622 10621 10620 10622 10621 10623 10626 10629 10632 10634 10635 10636 10638 10640 10644 10647
10334 10326 10318 10311 10305 10299 10292 10286 10281 10277 10274 10271 10268 10266 10264 10263 10263 10263 10264 10264 10264 10264 10266 10269 10271 10274 10277 10280 10289 10300 10308 10316 10324 10331 10339 10349 10358 10369 10381 10394 10405 10418 10436 10451 10459 10464 10472 10480 10488 10495 10503 10510 10517 10526 10535 10542 10544 10545 10551 10559 10565 10570 10575 10583 10590 10596 10603 10603 10598 10600 10609 10615 10618 10617 10616 10617 10617 10618 10621 10625 10629 10631 10631 10632 10635 10638 10641 10644
10333 10326 10318 10311 10304 10298 10292 10286 10280 10277 10274 10271 10268 10265 10264 10262 10262 10262 10263 10263 10264 10265 10266 10268 10270 10272 10274 10280 10289 10297 10303 10311 10319 10327 10335 10344 10353 10363 10375 10387 10398 10414 10430 10441 10448 10456 10466 10476 10486 10495 10502 10509 10517 10525 10533 10537 10539 10541 10548 10556 10561 10568 10576 10581 10585 10591 10597 10596 10592 10597 10606 10613 10615 10613 10612 10611 10611 10614 10617 10622 10627 10628 10628 10629 10631 10634 10638 10640
10333 10325 10318 10311 10304 10298 10292 10287 10281 10278 10274 10270 10267 10265 10263 10262 10262 10262 10263 10263 10264 10265 10266 10267 10268 10271 10275 10280 10287 10293 10300 10306 10314 10322 10331 10340 10350 10361 10373 10384 10396 10411 10425 10435 10442 10451 10462 10473 10484 10491 10497 10504 10513 10518 10523 10527 10529 10533 10539 10548 10558 10565 10570 10574 10578 10584 10589 10588 10588 10595 10605 10609 10610 10609 10606 10607 10609 10611 10615 10619 10622 10624 10625 10625 10627 10631 10634 10636
10333 10326 10319 10312 10305 10299 10293 10287 10282 10278 10274 10270 10267 10265 10264 10263 10262 10262 10263 10263 10264 10265 10266 10267 10269 10272 10276 10281 10286 10293 10298 10303 10311 10319 10328 10337 10347 10356 10367 10378 10391 10406 10420 10430 10438 10446 10457 10467 10474 10480 10488 10497 10504 10509 10516 10522 10526 10529 10537 10549 10556 10558 10562 10567 10572 10578 10581 10583 10587 10594 10601 10603 10604 10604 10603 10606 10608 10609 10612 10615 10617 10620 10621 10621 10624 10627 10630 10632
10334 10327 10320 10313 10306 10299 10294 10288 10282 10279 10274 10270 10268 10266 10264 10264 10263 10263 10263 10264 10265 10265 10266 10268 10271 10273 10277 10281 10286 10292 10296 10302 10309 10317 10324 10334 10343 10352 10362 10373 10386 10401 10413 10422 10431 10440 10451 10459 10465 10473 10482 10489 10494 10499 10507 10514 10518 10525 10538 10547 10547 10549 10556 10562 10567 10572 10577 10582 10586 10591 10595 10599 10600 10601 10601 10603 10606 10607 10609 10611 10612 10616 10618 10619 10621 10624 10626 10628
10334 10327 10320 10313 10306 10300 10295 10289 10283 10279 10275 10271 10269 10267 10266 10265 10265 10264 10265 10265 10266 10266 10268 10270 10272 10274 10277 10281 10286 10291 10295 10301 10307 10314 10321 10330 10339 10349 10358 10370 10382 10394 10403 10412 10423 10433 10442 10451 10459 10468 10474 10479 10483 10489 10499 10506 10512 10522 10531 10535 10537 10546 10555 10559 10564 10570 10575 10579 10582 10586 10591 10595 10596 10597 10598 10600 10602 10603 10604 10607 10609 10612 10614 10617 10619 10620 10622 10623
10334 10327 10320 10313 10307 10301 10296 10290 10285 10280 10277 10274 10271 10270 10268 10268 10267 10266 10266 10267 10267 10268 10269 10271 10273 10275 10277 10281 10285 10290 10294 10299 10305 10312 10319 10327 10335 10343 10353 10364 10375 10386 10395 10405 10416 10426 10435 10444 10453 10460 10465 10469 10476 10486 10498 10505 10510 10517 10522 10526 10534 10542 10549 10554 10561 10566 10570 10574 10578 10582 10587 10591 10592 10593 10594 10596 10598 10598 10600 10604 10606 10608 10611 10614 10615 10616 10616 10618
10336 10328 10322 10315 10308 10302 10297 10292 10287 10283 10280 10277 10274 10272 10271 10270 10269 10269 10269 10269 10269 10270 10271 10272 10274 10275 10278 10281 10285 10288 10292 10296 10302 10309 10317 10325 10333 10340 10348 10358 10369 10379 10389 10398 10409 10420 10429 10438 10447 10451 10454 10463 10477 10492 10501 10504 10508 10516 10523 10528 10534 10539 10545 10550 10554 10559 10565 10570 10575 10579 10584 10587 10588 10590 10591 10593 10594 10594 10596 10601 10604 10606 10608 10610 10611 10611 10612 10614
10338 10329 10323 10317 10310 10304 10299 10295 10290 10285 10282 10279 10276 10274 10273 10273 10272 10271 10271 10271 10271 10272 10272 10274 10275 10276 10279 10282 10285 10288 10292 10297 10301 10307 10314 10322 10330 10338 10347 10355 10364 10373 10382 10392 10405 10416 10424 10432 10439 10443 10453 10470 10485 10492 10494 10496 10503 10512 10518 10524 10531 10537 10543 10547 10552 10558 10563 10567 10571 10575 10580 10583 10584 10585 10586 10588 10590 10589 10592 10598 10601 10603 10605 10606 10607 10607 10609 10612
10337 10330 10323 10318 10312 10307 10303 10298 10293 10288 10285 10282 10280 10278 10277 10276 10275 10274 10274 10274 10274 10274 10274 10275 10276 10278 10279 10281 10284 10288 10292 10297 10302 10307 10313 10319 10326 10334 10342 10350 10359 10369 10379 10391 10401 10409 10417 10425 10433 10444 10460 10473 10478 10479 10480 10486 10494 10500 10505 10514 10523 10531 10538 10544 10550 10555 10559 10564 10569 10572 10576 10578 10579 10580 10581 10583 10585 10585 10588 10595 10599 10600 10602 10603 10603 10604 10606 10610
10338 10332 10326 10320 10315 10311 10306 10301 10296 10292 10288 10286 10283 10281 10280 10278 10277 10277 10277 10276 10276 10276 10276 10277 10278 10280 10281 10283 10286 10289 10293 10297 10302 10307 10312 10317 10323 10329 10336 10345 10356 10365 10374 10383 10390 10399 10410 10421 10432 10445 10456 10461 10463 10465 10469 10477 10486 10493 10501 10510 10519 10526 10534 10540 10545 10550 10556 10562 10566 10569 10573 10574 10574 10576 10576 10578 10582 10584 10587 10593 10596 10597 10600 10600 10599 10601 10603 10606
10342 10334 10328 10322 10317 10313 10308 10303 10298 10295 10291 10288 10286 10284 10283 10281 10280 10279 10279 10279 10278 10278 10279 10280 10280 10281 10283 10286 10288 10292 10294 10298 10303 10308 10312 10317 10322 10329 10337 10345 10353 10362 10371 10379 10388 10399 10411 10421 10430 10439 10445 10449 10452 10456 10464 10475 10486 10494 10503 10511 10518 10523 10528 10533 10539 10546 10552 10558 10562 10566 10568 10568 10569 10570 10572 10575 10579 10582 10586 10590 10592 10594 10597 10597 10597 10598 10599 10602
10343 10337 10330 10324 10319 10314 10309 10305 10300 10297 10293 10290 10289 10287 10286 10284 10283 10282 10281 10281 10281 10281 10281 10282 10283 10284 10286 10288 10290 10293 10296 10300 10304 10309 10314 10320 10326 10334 10344 10351 10356 10363 10370 10377 10386 10396 10404 10413 10423 10432 10441 10450 10457 10466 10476 10486 10493 10498 10502 10508 10514 10519 10525 10530 10536 10543 10548 10552 10557 10561 10562 10563 10565 10566 10568 10572 10576 10579 10584 10587 10588 10590 10593 10594 10594 10594 10596 10598
10342 10337 10332 10326 10320 10316 10311 10307 10303 10299 10296 10293 10292 10290 10289 10287 10286 10285 10284 10283 10283 10283 10284 10284 10285 10287 10289 10290 10292 10294 10298 10301 10306 10311 10317 10325 10332 10339 10347 10354 10359 10362 10367 10374 10384 10393 10401 10409 10419 10430 10442 10453 10462 10472 10480 10485 10488 10493 10498 10504 10510 10515 10521 10526 10532 10538 10543 10547 10552 10555 10557 10559 10561 10563 10565 10569 10573 10577 10580 10583 10584 10586 10590 10590 10590 10590 10592 10595
10344 10337 10333 10328 10323 10318 10314 10310 10306 10302 10299 10296 10295 10293 10292 10290 10289 10288 10287 10286 10285 10285 10286 10287 10287 10289 10291 10293 10294 10297 10300 10304 10308 10314 10320 10327 10334 10339 10345 10352 10357 10361 10367 10375 10384 10393 10404 10414 10422 10431 10440 10447 10454 10461 10468 10474 10480 10487 10494 10500 10505 10511 10516 10522 10528 10534 10538 10543 10548 10551 10554 10555 10557 10560 10562 10566 10570 10573 10577 10579 10580 10582 10585 10586 10586 10587 10589 10592
10349 10341 10335 10330 10325 10320 10317 10313 10309 10305 10302 10299 10297 10296 10294 10293 10292 10291 10289 10288 10287 10287 10288 10289 10290 10291 10293 10295 10297 10299 10303 10307 10309 10313 10319 10326 10331 10336 10341 10347 10354 10362 10371 10378 10385 10394 10404 10414 10422 10429 10436 10442 10448 10455 10461 10467 10474 10481 10488 10494 10500 10506 10513 10518 10524 10530 10535 10540 10544 10548 10550 10552 10554 10557 10560 10563 10566 10569 10573 10575 10576 10579 10581 10583 10584 10585 10586 10588
10350 10344 10338 10331 10326 10321 10318 10315 10312 10308 10305 10302 10300 10298 10297 10296 10294 10293 10291 10290 10290 10290 10290 10292 10292 10293 10295 10297 10299 10301 10304 10308 10311 10315 10320 10325 10330 10334 10339 10344 10352 10362 10370 10377 10385 10395 10403 10411 10418 10425 10431 10439 10446 10451 10456 10461 10468 10475 10481 10487 10494 10502 10508 10514 10521 10528 10533 10537 10541 10545 10548 10550 10552 10555 10557 10560 10562 10566 10569 10572 10574 10576 10577 10580 10582 10582 10583 10585
10349 10342 10337 10332 10328 10324 10320 10317 10314 10310 10307 10304 10302 10300 10299 10297 10296 10295 10294 10293 10292 10292 10293 10294 10294 10295 10297 10299 10301 10303 10305 10308 10313 10318 10322 10327 10331 10337 10342 10348 10355 10363 10370 10378 10387 10395 10402 10409 10415 10422 10430 10437 10443 10448 10454 10459 10464 10469 10475 10483 10490 10497 10504 10511 10519 10526 10530 10534 10537 10541 10544 10547 10550 10552 10553 10556 10560 10563 10566 10568 10570 10571 10573 10576 10578 10578 10580 10582
10351 10344 10338 10334 10330 10325 10321 10318 10316 10312 10309 10306 10304 10302 10301 10299 10298 10297 10296 10295 10294 10294 10295 10296 10297 10297 10299 10301 10303 10305 10307 10310 10314 10318 10324 10329 10335 10340 10346 10353 10360 10366 10372 10380 10387 10395 10401 10407 10413 10420 10427 10434 10439 10446 10451 10456 10461 10466 10473 10481 10488 10494 10502 10509 10516 10521 10525 10528 10532 10537 10541 10544 10545 10547 10549 10553 10556 10559 10562 10564 10565 10567 10570 10572 10573 10574 10576 10578
10354 10348 10341 10335 10331 10327 10323 10320 10317 10314 10311 10308 10306 10304 10303 10301 10300 10299 10298 10297 10296 10296 10296 10297 10299 10300 10300 10302 10304 10306 10308 10311 10316 10320 10325 10331 10337 10342 10348 10354 10360 10366 10372 10379 10385 10392 10398 10404 10409 10416 10424 10431 10438 10444 10449 10454 10459 10465 10473 10480 10487 10493 10500 10506 10511 10515 10519 10523 10528 10533 10537 10539 10541 10543 10546 10549 10553 10555 10557 10558 10560 10562 10566 10568 10568 10569 10572 10574